Regional Weather Roundup
Issued by NWS

Home | Current Version | Previous Version | Graphics & Text | Print | Product List | Glossary On
Versions: 1 2 3 4 5 6 7 8 9 10 11 12 13 14 15 16 17 18 19 20 21 22 23 24 25 26 27 28 29 30 31 32 33 34 35 36 37 38 39 40 41 42 43 44 45 46 47 48 49 50
000
ASUS43 KMKX 211000
RWRWI

WISCONSIN REGIONAL WEATHER ROUNDUP
NATIONAL WEATHER SERVICE MILWAUKEE/SULLIVAN WI
500 AM CDT THU AUG 21 2014

NOTE: "FAIR" INDICATES FEW OR NO CLOUDS BELOW 12,000 FEET WITH NO
SIGNIFICANT WEATHER AND/OR OBSTRUCTIONS TO VISIBILITY.

WIZ001-002-006>008-014>016-023>028-211100-
NORTHWEST WISCONSIN

CITY           SKY/WX    TMP DP  RH WIND       PRES   REMARKS
SUPERIOR ARPT  FOG       60  60 100 NE7       29.88S VSB 3/4
ASHLAND        FOG       58  58 100 NE3       29.92F VSB 1/4
HAYWARD        MOCLDY    62  60  93 CALM      29.90F
SIREN          CLOUDY    64  61  89 E3        29.86S
RICE LAKE      CLOUDY    64  60  89 E8        29.89S
LADYSMITH      CLOUDY    63  60  92 E6        29.92F
EAU CLAIRE     NOT AVBL
MENOMONIE      CLOUDY    66  64  91 E7        29.86S
NEW RICHMOND   LGT RAIN  66  64  93 E8        29.84S
OSCEOLA        LGT RAIN  67  65  93 E5        29.85F
$$

WIZ003>005-009-010-017-018-211100-
NORTH CENTRAL WISCONSIN

CITY           SKY/WX    TMP DP  RH WIND       PRES   REMARKS
WOODRUFF       CLOUDY    62  59  90 SE5       29.95F FOG
RHINELANDER    FOG       59  59 100 SE5       29.96F VSB 1/2
EAGLE RIVER    CLEAR     59  59 100 CALM      29.96F
LAND O LAKES   CLOUDY    60  60  99 CALM      29.97F
PHILLIPS       CLOUDY    58  58  99 E5        29.93S
TOMAHAWK       FOG       54  53  97 CALM      29.95F VSB 3/4
MEDFORD        CLOUDY    61  60  98 E5        29.93S
MERRILL        PTCLDY    56  56 100 CALM      29.94F
$$

WIZ029-030-035-036-043>047-211100-
CENTRAL WISCONSIN

CITY           SKY/WX    TMP DP  RH WIND       PRES   REMARKS
WAUSAU         CLOUDY    60  59  96 E7        29.93S
MOSINEE        MOCLDY    59  59 100 E5        29.95S FOG
MARSHFIELD     PTCLDY    63  61  93 E5        29.91F FOG
STEVENS POINT  MOCLDY    58  58  99 CALM      29.94S FOG
WAUPACA        CLOUDY    65  63  94 CALM      29.94S FOG
WAUTOMA        NOT AVBL
WISC RAPIDS    MOCLDY    64  62  93 E5        29.92F
CAMP DOUGLAS   MOCLDY    64  64 100 SE9       29.90S FOG
$$

WIZ011>013-019>022-031-037>040-048>050-211100-
NORTHEAST WISCONSIN

CITY           SKY/WX    TMP DP  RH WIND       PRES   REMARKS
ANTIGO         FOG       60  60 100 E5        29.96F VSB 1/4
STURGEON BAY   CLOUDY    61  57  88 S3        29.96S VSB 1/4
GREEN BAY      CLEAR     58  58 100 CALM      29.94S FOG
MANITOWOC      CLOUDY    63  63 100 CALM      29.95S FOG
APPLETON       PTCLDY    64  61  88 E5        29.94F
CLINTONVILLE   FOG       57  55  94 CALM      29.94S VSB 1/4
OSHKOSH        PTCLDY    64  62  93 E5        29.93F
$$

WIZ032>034-041-042-053>061-211100-
SOUTHWEST WISCONSIN

CITY           SKY/WX    TMP DP  RH WIND       PRES   REMARKS
LA CROSSE      CLOUDY    72  67  84 E7        29.84F
SPARTA         CLOUDY    66  64  93 CALM      29.88F
VIROQUA        CLOUDY    67  67 100 SE6       29.89F
BOSCOBEL       CLOUDY    69  66  90 CALM      29.88F
PRAIRIE DU CHI CLOUDY    71  66  85 SE6       29.87S
PLATTEVILLE    CLOUDY    69  66  89 E8        29.92S
$$

WIZ056-057-062-063-064-067-068-211100-
SOUTH CENTRAL WISCONSIN

CITY           SKY/WX    TMP DP  RH WIND       PRES   REMARKS
BARABOO/DELLS  PTCLDY    65  63  93 CALM      29.92S FOG
LONE ROCK      CLOUDY    73  68  84 S6        29.90F
WATERTOWN      CLOUDY    65  65  97 CALM      29.93S
MADISON        LGT RAIN  70  67  90 S6        29.92S
MIDDLETON      CLOUDY    69  69  98 CALM      29.93R
MONROE         TSTM      68  66  94 W13G18    29.95R
JANESVILLE     RAIN      70  66  88 S3        29.93R
$$

WIZ051-052-058>065-066-070>072-211100-
SOUTHEAST WISCONSIN

CITY           SKY/WX    TMP DP  RH WIND       PRES   REMARKS
MILWAUKEE      MOCLDY    67  63  87 S5        29.94S
WAUKESHA       MOCLDY    63  61  94 S3        29.95S
MILWAUKEE/TIMM PTCLDY    64  61  88 CALM      29.95S
RACINE         MOCLDY    67  64  90 CALM      29.96R
BURLINGTON     CLOUDY    64  64  99 CALM      29.94F
KENOSHA        PTCLDY    65  65 100 CALM      29.94F
FOND DU LAC    PTCLDY    64  60  87 SE6       29.94S
SHEBOYGAN      FOG       59  58  96 CALM      29.94F VSB 1/4
WEST BEND      PTCLDY    61  59  94 CALM      29.95S FOG
JUNEAU         PTCLDY    64  38  37 SE5       29.94F
$$

LSZ147-162-211100-
LAKE SUPERIOR

STATION/POSITION TIME  TEMP    WIND        PRES    WAVE
                       AIR SEA DIR/SP/G            HT/PER
                 (UTC) (F)     (DEG/KT/KT) (MB)    (FT/S)
W MID LAKE BUOY  0850   57 57   90/  6/  8 1014.2F   0
DEVILS ISLAND    0900   61      90/  9/  9 1013.4F
PORT WING        0940   59      80/  1/  2 1012.5F
SAXON HARBOR     0940   56        CALM     1012.9F
$$

LMZ867-665-643>646-211100-
LAKE MICHIGAN

STATION/POSITION TIME  TEMP    WIND        PRES    WAVE
                       AIR SEA DIR/SP/G            HT/PER
                 (UTC) (F)     (DEG/KT/KT) (MB)    (FT/S)
N MID LAKE BUOY  0850   63 63  210/  2/  2 1014.3F   0
NORTHPORT PIER   0900   65     200/  2/  3 1014.6F
SISTER BAY       0911   65        CALM       N/A
KEWAUNEE LAKESHO 0900   61      CALM  /  1 1013.4F
SHEBOYGAN LAKESH 0900   66 66   80/  2/  2 1014.2F
ATWATER BUOY     0900   68      90/  2/  4 1014.9F
MILWAUKEE LAKESH 0900   68      90/  3/  3   N/A
S MID LAKE BUOY  0850   68 68   60/  6/  6 1013.5F   0
KENOSHA   LAKESH 0900   70     190/  3/  5 1013.9R
$$

TC  - TEMPERATURE IN CELSIUS
VSB - VISIBILITY IN STATUTE MILES
WCI - WIND CHILL INDEX
HX  - HEAT INDEX




USA.gov is the U.S. government's official web portal to all federal, state and local government web resources and services.